Starlink 32283

operational
NORAD ID: 62425 Int'l Des: 2024-249 Owner: SPXS Country: US Constellation: starlink
LEOCIRCULAR

About Starlink 32283

Description loading...

Live Position

Loading 3D Globe...

Upcoming Passes

Altitude History

Altitude vs Time

uPlot chart will show altitude changes over time

Two-Line Element Set

1 62425U 24249S 25304.34798947 .00047025 00000-0 17062-2 0 9991
2 62425 43.0008 320.9632 0000854 263.5859 96.4896 15.27606274 48077
Epoch: Oct 31, 2025 • Age: 29 hours

Current Status

Altitude 481.9 km
Velocity 7.63 km/s
Sub-Earth Point 13.73°N, 121.43°W
Launch Date Dec 23, 2024
Age 0.8 years
Type internet

Technical Details

Classification Payload
Mass 730.00 kg
Dry Mass 700.00 kg
Total Mass 730.00 kg
Length 0.30 m
Diameter 4.10 m
Span 29.00 m
Shape Box + pan
Manufacturer SPXS
Bus Type Starlink V2M
Phase Status In Orbit
Owner/State SPXS/US

Large Constellations

Loading constellations...